SCP
0 0 0 0 0 0 -0 0 0 0 0 0 0 0 0 0 0 0 0 0 0 0 0 0 0 0 0 0 0 0 0 0 0 0 0 0 0 0 0 0 0 0 0 0 0
0 0 0 0 0 0 0 0 0 0 0 0 0 0 0 0 0 0 0 0 0 0 0 0 0 0 0 0 0 0 0 0 0 0 0 0 0 0 0 0 0 0 0 0 0
0 0 0 0 0 0 0 0 0 0 0 0 0 0 0 0 0 0 0 0 0 0 0 0 0 0 0 0 0 0 0 0 0 0 0 0 0 0 0 0 0 0 0 0 0
0 0 0 0 0 0 0 0 0 0 0 0 0 0 0 0 0 0 0 0 0 0 0 0 0 0 0 0 0 0 0 0 -0 -0 0 0 0 0 0 0 0 0 0 0 0
0 0 0 0 0 0 0 0 0 0 0 0 0 0 0 0 0 0 0 0 0 0 0 0 0 0 0 0 0 -0 -0 -0 -0 -0 0 0 0 0 0 0 0 0 0 0 0
0 0 0 0 0 0 0 0 0 0 0 0 0 0 0 0 0 0 0 0 0 0 0 0 0 0 0 0 -0 -0 -0 -0 0 0 0 0 0 0 0 0 0 0 0 0 0
0 0 0 0 0 0 0 0 0 0 0 0 0 0 0 0 0 0 0 0 0 0 0 0 0 0 0 -0 0 -0 -0 0 0 0 0 0 0 0 0 0 0 0 0 0 0
0 0 0 0 0 0 0 0 0 0 0 0 0 0 0 0 0 0 0 0 0 0 0 0 0 -0 0 -0 0 0 0 0 0 0 0 0 0 0 0 -0 -0 0 0 0 0
0 0 0 0 0 0 0 0 0 0 0 0 0 0 0 0 0 0 0 0 0 0 0 0 0 -0 0 -0 0 0 0 0 0 0 0 0 0 0 0 0 0 0 0 0 0
0 0 0 0 0 0 0 0 0 0 0 0 0 0 0 0 0 0 0 0 0 0 0 -0 -0 -0 -0 0 -0 0 0 0 0 0 0 -0 -0 0 0 0 0 0 0 0 0
0 0 0 0 0 0 0 0 0 0 0 0 0 0 0 0 0 0 0 0 0 -0 0 0 0 0 0 0 0 0 0 0 0 0 0 0 0 0 0 0 0 0 0 0 0
0 0 0 0 0 0 0 0 0 0 0 0 0 0 0 0 0 0 0 0 0 0 0 0 0 0 0 0 0 0 0 0 0 0 0 0 -0 0 0 0 0 0 0 0 0
0 0 0 -0 0 0 0 0 0 0 0 0 0 0 0 0 0 0 0 0 0 0 0 0 0 0 0 0 0 0 0 0 0 0 0 0 0 0 0 0 0 0 0 0 0
0 0 0 0 0 0 0 0 0 0 0 0 0 0 0 0 0 0 0 0 0 0 0 0 0 0 0 0 0 0 0 0 0 0 0 0 0 0 0 0 0 0 0 0 0
0 0 0 -0 0 0 0 0 0 0 0 0 0 0 0 0 0 0 0 0 0 0 0 0 0 0 0 0 0 0 0 0 0 0 0 0 0 0 0 0 0 0 0 0 0
0 0 0 0 0 0 0 0 0 0 0 0 0 0 0 0 0 0 0 0 0 0 0 0 0 0 0 0 0 0 0 0 0 0 0 0 0 0 0 0 0 0 0 0 0
0 0 -0 0 0 0 0 0 0 0 0 0 0 0 0 0 0 0 0 0 0 0 0 0 0 0 0 0 0 0 -0 -0 0 0 0 0 0 0 0 0 0 0 0 0 0
0 0 0 0 0 0 0 0 0 0 0 0 0 0 0 0 0 0 0 0 -0 -0 0 -0 0 0 0 0 0 0 0 0 0 0 0 0 0 0 0 0 0 0 0 0 0
0 0 0 0 0 0 0 0 0 0 0 0 0 0 0 0 0 0 0 0 0 -0 -0 -0 0 0 0 0 0 0 0 0 0 0 0 0 0 0 0 0 0 0 0 0 0
0 0 0 0 0 0 0 0 0 0 0 0 0 0 0 0 0 -0 -0 0 0 0 0 0 0 0 0 0 0 0 0 0 0 0 0 0 0 0 0 0 0 0 0 0 0
0 0 0 0 0 0 0 0 0 0 0 0 0 0 0 0 0 -0 -0 0 0 0 0 0 0 0 0 0 0 0 0 0 0 0 0 0 0 0 0 0 0 0 0 0 0
0 0 0 0 0 0 0 0 0 0 0 0 0 0 0 0 0 0 0 0 0 0 0 0 0 0 0 0 0 0 0 0 0 0 0 0 0 0 0 0 0 0 0 0 0
0 0 0 0 0 0 0 0 0 0 0 0 0 0 0 0 0 0 0 0 0 0 0 0 0 0 0 0 0 0 0 0 0 0 0 0 0 0 0 0 0 0 0 0 0
0 0 0 -0 -0 0 0 0 0 0 0 0 0 0 0 0 0 0 0 0 0 0 0 0 0 0 0 0 0 0 0 0 0 0 0 0 0 0 0 0 0 0 0 0 0
0 0 0 0 0 0 0 0 0 0 0 0 0 0 0 0 0 0 0 0 0 0 0 0 0 0 0 0 0 0 0 0 0 0 0 0 0 0 0 0 0 0 0 0 0
0 0 0 0 0 0 0 0 0 0 0 0 0 0 0 0 0 0 0 0 0 0 0 0 0 0 0 0 0 0 0 0 0 0 0 0 0 0 0 0 0 0 0 0 0
0 0 0 0 0 0 0 0 0 0 0 0 0 0 0 0 0 0 0 0 0 0 0 0 0 0 0 0 0 0 0 0 0 0 0 0 0 0 0 0 0 0 0 0 0
Wind_Speed_500mb
37 37 34 31 28 27 27 22 20 17 11 12 17 27 36 33 20 14 25 19 17 14 19 23 23 24 24 24 18 10 7 8 7 8 8 1 7 5 9 15 13 7 10 15 14
37 36 35 33 30 27 27 24 21 18 16 14 13 18 28 32 40 43 29 19 14 14 18 20 21 15 16 12 12 11 7 7 3 3 4 6 5 6 8 13 13 14 12 12 13
41 39 37 35 30 31 33 27 25 23 16 12 19 13 12 14 33 36 27 20 12 16 18 20 23 26 18 14 14 9 7 12 4 2 1 6 6 2 14 6 5 10 14 14 13
39 37 32 30 29 29 28 34 33 25 19 17 16 10 6 1 10 27 28 21 14 18 17 17 14 11 11 10 6 14 9 3 4 6 4 4 5 6 2 7 14 16 17 16 13
42 40 36 32 32 31 30 31 36 32 32 24 29 33 36 46 24 30 29 20 18 18 16 20 31 15 12 16 20 20 10 11 11 16 13 7 4 5 9 16 17 17 17 12 11
42 41 36 32 29 25 24 28 28 33 42 36 31 29 42 58 30 33 29 27 27 16 21 18 25 42 26 11 11 10 20 11 10 9 6 8 8 5 17 18 16 17 11 12 13
37 39 43 45 35 25 28 32 25 32 32 30 37 58 66 31 29 27 33 39 39 30 40 32 19 9 16 23 18 14 10 5 9 9 3 4 12 14 8 22 18 19 24 23 21
32 29 28 30 22 27 15 20 28 26 16 16 35 45 32 30 27 18 29 37 36 39 46 45 41 42 15 29 8 3 3 5 7 12 2 4 12 11 9 30 34 29 28 24 22
32 32 31 29 25 10 28 15 18 27 32 20 12 19 14 18 29 24 20 22 28 29 31 28 28 22 11 6 6 10 2 6 5 4 8 7 20 12 10 27 35 34 30 22 19
35 35 30 30 29 16 33 46 31 9 11 17 17 16 25 25 37 24 19 15 9 10 11 14 17 9 8 4 3 1 1 6 11 7 7 20 43 29 22 29 35 32 31 25 21
34 36 29 24 28 20 5 12 8 29 69 37 29 22 26 16 35 34 12 14 15 22 10 17 14 13 11 10 6 3 3 10 6 9 16 19 35 36 33 32 32 34 34 32 26
31 31 26 17 14 15 29 29 24 22 31 37 45 27 36 27 18 37 22 12 18 10 8 10 14 4 5 5 1 1 7 10 17 2 13 21 51 40 25 29 39 35 35 31 27
30 29 26 8 12 8 16 22 19 11 10 21 34 34 28 23 23 42 28 13 15 13 18 13 7 2 3 8 10 5 6 8 13 24 2 24 19 3 6 9 13 24 29 32 35
29 28 29 15 5 7 9 9 7 6 10 31 27 25 33 8 14 38 32 11 14 5 9 12 6 5 7 9 9 5 3 11 15 15 9 16 11 9 4 9 18 27 33 39 43
28 25 28 21 10 5 4 6 5 4 10 20 16 19 21 19 10 28 32 21 13 7 4 5 8 9 9 6 5 5 8 6 4 3 8 10 5 9 4 4 4 21 37 41 41
27 20 29 27 18 7 4 7 6 12 5 10 14 22 11 22 15 24 16 18 11 5 14 7 3 7 7 5 5 10 5 2 3 2 2 3 9 15 5 2 6 8 15 33 38
29 20 30 29 16 8 7 10 11 12 7 12 8 12 3 14 13 22 11 17 12 8 12 1 5 2 6 7 4 6 7 6 6 3 5 6 9 23 12 16 15 14 15 17 29
28 17 35 32 19 9 8 8 16 1 8 3 5 6 9 16 7 13 4 7 14 7 6 10 4 8 13 6 3 8 4 3 10 9 17 7 13 8 6 6 12 17 21 20 21
24 12 44 37 21 10 4 13 6 9 3 2 3 7 7 5 4 7 10 3 3 11 6 7 5 2 3 1 3 2 2 3 3 4 5 6 13 26 6 14 15 19 14 16 15
21 6 46 36 20 11 11 9 2 2 6 4 3 1 3 10 5 8 4 3 2 3 1 7 8 4 3 2 9 3 7 1 1 10 16 8 11 15 7 8 3 9 12 9 21
17 6 47 33 15 17 9 5 3 2 3 6 2 2 1 4 4 3 2 3 4 2 0 6 1 1 2 9 9 4 3 3 1 2 7 14 11 12 12 8 4 8 4 17 24
15 8 41 23 13 14 6 5 3 1 1 1 2 4 4 4 2 1 3 2 6 5 2 3 2 9 10 4 3 3 4 7 5 7 7 6 23 4 1 1 8 16 20 26 42
9 13 30 22 8 5 3 4 4 4 1 3 3 6 4 4 3 2 3 3 6 6 4 9 3 8 10 3 3 8 8 5 2 1 17 13 16 3 4 4 17 27 34 38 22
8 8 17 29 20 10 7 2 3 2 3 2 2 0 1 4 4 5 5 5 9 8 6 6 5 11 15 9 2 13 14 15 11 9 10 31 51 48 44 7 24 26 27 10 12
12 8 7 5 12 12 4 6 4 3 2 3 3 5 5 4 7 5 3 3 3 5 2 4 8 5 20 22 16 31 32 24 27 35 20 52 31 54 43 30 30 17 10 11 11
7 2 6 6 3 2 2 7 10 4 8 5 7 9 12 9 8 7 6 8 5 4 6 1 3 0 12 14 17 23 34 29 34 41 36 54 56 44 39 6 6 11 10 8 10
9 6 3 1 4 3 5 7 8 10 11 9 10 7 7 11 14 17 18 9 1 4 9 3 4 3 11 6 23 19 21 24 13 13 12 15 23 6 6 15 10 9 4 4 17
Wind_Direction_500mb
40 38 40 44 52 61 63 62 65 74 80 64 89 96 85 78 74 111 76 43 64 84 111 118 115 109 100 77 66 78 87 119 135 168 138 134 170 73 76 102 73 83 118 147 181
44 43 42 48 54 53 60 56 58 63 64 76 110 114 97 81 77 68 60 53 72 90 116 127 121 119 77 52 36 50 98 137 175 171 143 80 128 120 173 129 95 106 140 167 197
43 45 46 49 50 60 54 52 51 51 50 78 128 119 119 99 50 27 57 70 92 104 122 131 118 103 72 50 22 39 105 145 126 280 217 93 77 50 159 127 141 176 171 191 200
30 29 37 43 49 46 48 59 51 51 67 91 108 97 71 152 63 22 50 66 86 115 127 131 128 73 68 68 18 100 71 103 53 2 95 125 116 106 167 175 174 170 194 194 202
34 35 37 47 50 61 61 60 58 66 76 98 105 107 100 79 40 45 48 52 88 106 122 124 114 96 94 99 76 80 109 66 55 80 74 137 162 222 199 181 182 187 190 184 199
39 39 40 41 49 56 53 61 72 66 72 91 96 98 90 73 51 52 60 67 81 117 130 122 105 109 82 57 44 108 113 113 67 79 66 165 189 210 202 182 181 192 181 193 208
38 46 52 49 43 56 68 69 77 81 92 96 93 80 74 68 56 58 74 73 77 98 102 101 111 95 103 102 110 125 103 134 51 357 47 289 233 230 141 183 183 197 214 215 220
28 28 25 18 14 37 57 74 83 73 88 82 75 72 72 59 56 78 78 77 79 84 92 93 97 88 73 118 88 130 173 207 74 10 57 313 283 167 201 181 200 204 211 210 220
17 8 9 23 23 58 58 79 91 83 79 58 56 66 54 48 57 65 79 85 88 86 86 91 89 75 65 118 116 38 22 345 271 104 305 232 275 186 201 202 216 216 214 207 219
19 17 22 32 36 90 82 78 75 133 93 58 43 68 33 20 34 38 59 70 88 81 60 53 61 75 46 357 86 57 253 254 272 24 304 266 263 260 229 220 230 223 219 213 214
16 18 23 36 45 48 167 94 66 53 68 70 59 70 31 45 40 31 69 68 64 62 49 24 76 63 34 17 16 49 304 292 297 29 320 287 286 281 259 233 229 224 220 220 218
15 19 19 28 49 51 59 81 95 118 74 58 57 52 38 36 42 46 61 72 55 57 350 67 67 360 307 323 344 276 307 325 295 43 325 307 292 293 269 243 234 225 224 224 220
16 17 20 34 26 23 48 73 85 93 78 29 31 27 20 26 41 12 30 49 65 60 38 77 64 320 259 34 2 35 342 341 290 318 144 313 282 297 69 228 226 229 229 227 226
18 17 16 16 19 34 64 69 67 50 75 347 355 18 1 23 45 17 20 37 42 88 40 64 5 14 31 53 0 314 61 303 299 334 316 359 294 304 346 279 229 229 228 229 230
16 21 21 16 13 29 94 80 73 88 60 344 341 347 9 65 343 13 24 50 59 48 327 33 9 13 40 358 332 328 316 304 338 325 316 15 282 277 333 21 8 236 233 232 232
11 19 18 17 25 44 127 117 97 40 55 346 334 355 7 24 19 354 32 51 68 87 54 93 52 29 353 296 275 308 261 151 141 208 283 320 345 284 280 233 266 259 248 236 230
5 9 9 15 22 38 129 139 42 84 0 332 344 4 39 355 10 21 38 34 29 26 16 56 63 71 7 293 207 317 300 331 342 352 317 163 272 258 243 232 247 285 293 277 237
2 22 10 11 25 48 145 62 69 301 252 332 324 317 53 3 44 6 83 60 53 28 71 19 316 13 354 46 325 12 356 66 306 303 305 145 230 249 199 245 269 272 280 285 249
3 48 13 9 9 33 124 51 162 194 139 304 274 44 352 19 322 22 43 99 337 358 49 351 275 175 36 26 301 74 67 38 116 87 285 234 273 278 275 279 250 263 277 293 283
7 33 7 4 7 31 71 110 128 299 336 294 100 31 350 342 351 34 21 290 237 359 318 179 292 191 133 131 49 326 111 14 91 313 305 228 283 252 294 271 232 249 259 308 307
21 57 1 3 20 48 78 100 215 246 354 3 72 89 2 344 359 9 356 184 239 187 242 144 219 252 159 193 171 148 195 71 299 228 265 301 273 202 226 203 199 275 248 311 319
29 40 2 12 38 51 74 160 100 128 28 285 160 133 176 148 224 261 305 237 180 179 274 151 202 270 241 155 334 294 260 205 211 207 235 274 273 90 325 340 251 255 304 316 315
41 22 16 23 77 56 91 96 132 152 48 329 346 8 52 134 47 283 248 196 185 211 201 170 222 310 305 169 131 240 196 167 80 80 229 263 265 129 149 242 270 282 314 320 325
27 24 31 53 66 100 137 83 126 174 144 127 98 22 227 48 355 241 246 202 199 206 189 180 236 218 243 253 59 243 193 203 202 245 270 240 275 282 287 306 321 328 323 337 344
34 65 32 337 30 82 89 151 148 194 185 175 96 222 162 326 331 294 282 239 219 194 134 214 259 301 272 270 264 264 259 217 210 233 243 271 275 279 290 313 315 321 326 339 336
48 69 88 105 50 42 17 203 184 224 171 208 189 182 180 198 209 251 194 206 249 168 189 62 256 278 278 292 263 264 264 242 238 252 255 262 277 277 293 347 321 311 320 331 349
24 49 25 182 148 130 204 182 217 172 214 219 208 167 222 246 251 259 243 258 54 166 184 242 208 297 263 352 312 279 241 195 207 214 196 225 259 51 287 300 309 314 339 16 343
Wind_Speed_850mb
37 37 34 31 28 27 27 22 20 17 11 12 17 27 36 33 20 14 25 19 17 14 19 23 23 24 24 24 18 10 7 8 7 8 8 1 7 5 9 15 13 7 10 15 14
37 36 35 33 30 27 27 24 21 18 16 14 13 18 28 32 40 43 29 19 14 14 18 20 21 15 16 12 12 11 7 7 3 3 4 6 5 6 8 13 13 14 12 12 13
41 39 37 35 30 31 33 27 25 23 16 12 19 13 12 14 33 36 27 20 12 16 18 20 23 26 18 14 14 9 7 12 4 2 1 6 6 2 14 6 5 10 14 14 13
39 37 32 30 29 29 28 34 33 25 19 17 16 10 6 1 10 27 28 21 14 18 17 17 14 11 11 10 6 14 9 3 4 6 4 4 5 6 2 7 14 16 17 16 13
42 40 36 32 32 31 30 31 36 32 32 24 29 33 36 46 24 30 29 20 18 18 16 20 31 15 12 16 20 20 10 11 11 16 13 7 4 5 9 16 17 17 17 12 11
42 41 36 32 29 25 24 28 28 33 42 36 31 29 42 58 30 33 29 27 27 16 21 18 25 42 26 11 11 10 20 11 10 9 6 8 8 5 17 18 16 17 11 12 13
37 39 43 45 35 25 28 32 25 32 32 30 37 58 66 31 29 27 33 39 39 30 40 32 19 9 16 23 18 14 10 5 9 9 3 4 12 14 8 22 18 19 24 23 21
32 29 28 30 22 27 15 20 28 26 16 16 35 45 32 30 27 18 29 37 36 39 46 45 41 42 15 29 8 3 3 5 7 12 2 4 12 11 9 30 34 29 28 24 22
32 32 31 29 25 10 28 15 18 27 32 20 12 19 14 18 29 24 20 22 28 29 31 28 28 22 11 6 6 10 2 6 5 4 8 7 20 12 10 27 35 34 30 22 19
35 35 30 30 29 16 33 46 31 9 11 17 17 16 25 25 37 24 19 15 9 10 11 14 17 9 8 4 3 1 1 6 11 7 7 20 43 29 22 29 35 32 31 25 21
34 36 29 24 28 20 5 12 8 29 69 37 29 22 26 16 35 34 12 14 15 22 10 17 14 13 11 10 6 3 3 10 6 9 16 19 35 36 33 32 32 34 34 32 26
31 31 26 17 14 15 29 29 24 22 31 37 45 27 36 27 18 37 22 12 18 10 8 10 14 4 5 5 1 1 7 10 17 2 13 21 51 40 25 29 39 35 35 31 27
30 29 26 8 12 8 16 22 19 11 10 21 34 34 28 23 23 42 28 13 15 13 18 13 7 2 3 8 10 5 6 8 13 24 2 24 19 3 6 9 13 24 29 32 35
29 28 29 15 5 7 9 9 7 6 10 31 27 25 33 8 14 38 32 11 14 5 9 12 6 5 7 9 9 5 3 11 15 15 9 16 11 9 4 9 18 27 33 39 43
28 25 28 21 10 5 4 6 5 4 10 20 16 19 21 19 10 28 32 21 13 7 4 5 8 9 9 6 5 5 8 6 4 3 8 10 5 9 4 4 4 21 37 41 41
27 20 29 27 18 7 4 7 6 12 5 10 14 22 11 22 15 24 16 18 11 5 14 7 3 7 7 5 5 10 5 2 3 2 2 3 9 15 5 2 6 8 15 33 38
29 20 30 29 16 8 7 10 11 12 7 12 8 12 3 14 13 22 11 17 12 8 12 1 5 2 6 7 4 6 7 6 6 3 5 6 9 23 12 16 15 14 15 17 29
28 17 35 32 19 9 8 8 16 1 8 3 5 6 9 16 7 13 4 7 14 7 6 10 4 8 13 6 3 8 4 3 10 9 17 7 13 8 6 6 12 17 21 20 21
24 12 44 37 21 10 4 13 6 9 3 2 3 7 7 5 4 7 10 3 3 11 6 7 5 2 3 1 3 2 2 3 3 4 5 6 13 26 6 14 15 19 14 16 15
21 6 46 36 20 11 11 9 2 2 6 4 3 1 3 10 5 8 4 3 2 3 1 7 8 4 3 2 9 3 7 1 1 10 16 8 11 15 7 8 3 9 12 9 21
17 6 47 33 15 17 9 5 3 2 3 6 2 2 1 4 4 3 2 3 4 2 0 6 1 1 2 9 9 4 3 3 1 2 7 14 11 12 12 8 4 8 4 17 24
15 8 41 23 13 14 6 5 3 1 1 1 2 4 4 4 2 1 3 2 6 5 2 3 2 9 10 4 3 3 4 7 5 7 7 6 23 4 1 1 8 16 20 26 42
9 13 30 22 8 5 3 4 4 4 1 3 3 6 4 4 3 2 3 3 6 6 4 9 3 8 10 3 3 8 8 5 2 1 17 13 16 3 4 4 17 27 34 38 22
8 8 17 29 20 10 7 2 3 2 3 2 2 0 1 4 4 5 5 5 9 8 6 6 5 11 15 9 2 13 14 15 11 9 10 31 51 48 44 7 24 26 27 10 12
12 8 7 5 12 12 4 6 4 3 2 3 3 5 5 4 7 5 3 3 3 5 2 4 8 5 20 22 16 31 32 24 27 35 20 52 31 54 43 30 30 17 10 11 11
7 2 6 6 3 2 2 7 10 4 8 5 7 9 12 9 8 7 6 8 5 4 6 1 3 0 12 14 17 23 34 29 34 41 36 54 56 44 39 6 6 11 10 8 10
9 6 3 1 4 3 5 7 8 10 11 9 10 7 7 11 14 17 18 9 1 4 9 3 4 3 11 6 23 19 21 24 13 13 12 15 23 6 6 15 10 9 4 4 17
Wind_Direction_850mb
40 38 40 44 52 61 63 62 65 74 80 64 89 96 85 78 74 111 76 43 64 84 111 118 115 109 100 77 66 78 87 119 135 168 138 134 170 73 76 102 73 83 118 147 181
44 43 42 48 54 53 60 56 58 63 64 76 110 114 97 81 77 68 60 53 72 90 116 127 121 119 77 52 36 50 98 137 175 171 143 80 128 120 173 129 95 106 140 167 197
43 45 46 49 50 60 54 52 51 51 50 78 128 119 119 99 50 27 57 70 92 104 122 131 118 103 72 50 22 39 105 145 126 280 217 93 77 50 159 127 141 176 171 191 200
30 29 37 43 49 46 48 59 51 51 67 91 108 97 71 152 63 22 50 66 86 115 127 131 128 73 68 68 18 100 71 103 53 2 95 125 116 106 167 175 174 170 194 194 202
34 35 37 47 50 61 61 60 58 66 76 98 105 107 100 79 40 45 48 52 88 106 122 124 114 96 94 99 76 80 109 66 55 80 74 137 162 222 199 181 182 187 190 184 199
39 39 40 41 49 56 53 61 72 66 72 91 96 98 90 73 51 52 60 67 81 117 130 122 105 109 82 57 44 108 113 113 67 79 66 165 189 210 202 182 181 192 181 193 208
38 46 52 49 43 56 68 69 77 81 92 96 93 80 74 68 56 58 74 73 77 98 102 101 111 95 103 102 110 125 103 134 51 357 47 289 233 230 141 183 183 197 214 215 220
28 28 25 18 14 37 57 74 83 73 88 82 75 72 72 59 56 78 78 77 79 84 92 93 97 88 73 118 88 130 173 207 74 10 57 313 283 167 201 181 200 204 211 210 220
17 8 9 23 23 58 58 79 91 83 79 58 56 66 54 48 57 65 79 85 88 86 86 91 89 75 65 118 116 38 22 345 271 104 305 232 275 186 201 202 216 216 214 207 219
19 17 22 32 36 90 82 78 75 133 93 58 43 68 33 20 34 38 59 70 88 81 60 53 61 75 46 357 86 57 253 254 272 24 304 266 263 260 229 220 230 223 219 213 214
16 18 23 36 45 48 167 94 66 53 68 70 59 70 31 45 40 31 69 68 64 62 49 24 76 63 34 17 16 49 304 292 297 29 320 287 286 281 259 233 229 224 220 220 218
15 19 19 28 49 51 59 81 95 118 74 58 57 52 38 36 42 46 61 72 55 57 350 67 67 360 307 323 344 276 307 325 295 43 325 307 292 293 269 243 234 225 224 224 220
16 17 20 34 26 23 48 73 85 93 78 29 31 27 20 26 41 12 30 49 65 60 38 77 64 320 259 34 2 35 342 341 290 318 144 313 282 297 69 228 226 229 229 227 226
18 17 16 16 19 34 64 69 67 50 75 347 355 18 1 23 45 17 20 37 42 88 40 64 5 14 31 53 0 314 61 303 299 334 316 359 294 304 346 279 229 229 228 229 230
16 21 21 16 13 29 94 80 73 88 60 344 341 347 9 65 343 13 24 50 59 48 327 33 9 13 40 358 332 328 316 304 338 325 316 15 282 277 333 21 8 236 233 232 232
11 19 18 17 25 44 127 117 97 40 55 346 334 355 7 24 19 354 32 51 68 87 54 93 52 29 353 296 275 308 261 151 141 208 283 320 345 284 280 233 266 259 248 236 230
5 9 9 15 22 38 129 139 42 84 0 332 344 4 39 355 10 21 38 34 29 26 16 56 63 71 7 293 207 317 300 331 342 352 317 163 272 258 243 232 247 285 293 277 237
2 22 10 11 25 48 145 62 69 301 252 332 324 317 53 3 44 6 83 60 53 28 71 19 316 13 354 46 325 12 356 66 306 303 305 145 230 249 199 245 269 272 280 285 249
3 48 13 9 9 33 124 51 162 194 139 304 274 44 352 19 322 22 43 99 337 358 49 351 275 175 36 26 301 74 67 38 116 87 285 234 273 278 275 279 250 263 277 293 283
7 33 7 4 7 31 71 110 128 299 336 294 100 31 350 342 351 34 21 290 237 359 318 179 292 191 133 131 49 326 111 14 91 313 305 228 283 252 294 271 232 249 259 308 307
21 57 1 3 20 48 78 100 215 246 354 3 72 89 2 344 359 9 356 184 239 187 242 144 219 252 159 193 171 148 195 71 299 228 265 301 273 202 226 203 199 275 248 311 319
29 40 2 12 38 51 74 160 100 128 28 285 160 133 176 148 224 261 305 237 180 179 274 151 202 270 241 155 334 294 260 205 211 207 235 274 273 90 325 340 251 255 304 316 315
41 22 16 23 77 56 91 96 132 152 48 329 346 8 52 134 47 283 248 196 185 211 201 170 222 310 305 169 131 240 196 167 80 80 229 263 265 129 149 242 270 282 314 320 325
27 24 31 53 66 100 137 83 126 174 144 127 98 22 227 48 355 241 246 202 199 206 189 180 236 218 243 253 59 243 193 203 202 245 270 240 275 282 287 306 321 328 323 337 344
34 65 32 337 30 82 89 151 148 194 185 175 96 222 162 326 331 294 282 239 219 194 134 214 259 301 272 270 264 264 259 217 210 233 243 271 275 279 290 313 315 321 326 339 336
48 69 88 105 50 42 17 203 184 224 171 208 189 182 180 198 209 251 194 206 249 168 189 62 256 278 278 292 263 264 264 242 238 252 255 262 277 277 293 347 321 311 320 331 349
24 49 25 182 148 130 204 182 217 172 214 219 208 167 222 246 251 259 243 258 54 166 184 242 208 297 263 352 312 279 241 195 207 214 196 225 259 51 287 300 309 314 339 16 343